Location: Newark
(18.4314°N, 64.6231°W)
Time: 07:35:11
(UTC+00:00)

OTV 5 (USA 277) - Pass Details

Date: 28 July 2019
Orbit: 305 x 329 km, 54.5° (Epoch: 11 August)

Event Time Altitude Azimuth Distance (km) Brightness Sun altitude
Exits shadow 08:52:01 - 171° (S) 1,212 ? -14.5°
Reaches altitude 10° 08:52:09 10° 169° (S) 1,168 ? -14.5°
Maximum altitude 08:54:01 18° 122° (ESE) 836 ? -14.1°
Drops below altitude 10° 08:55:54 10° 76° (ENE) 1,170 ? -13.7°
Sets 08:58:11 0° 55° (NE) 1,996 ? -13.2°
